West Palm Beach, FL

8:18 AM EST on December 14, 2019 (GMT -0500)
Palm Beach International

Weather History for KPBI - October, 2019

Change the Weather History Date:

Sunday, October 20, 2019

  Actual Average Record
Temperature  
Mean Temperature 84 °F 78 °F  
Max Temperature 89 °F 84 °F 91 °F (1980)
Min Temperature 79 °F 71 °F 49 °F (1927)
Degree Days  
Heating Degree Days 0 0  
Month to date heating degree days 0 0  
Since 1 July heating degree days 0 0  
Cooling Degree Days 19 13  
Month to date cooling degree days 337 286  
Year to date cooling degree days 4046 3494  
Growing Degree Days 34 (Base 50)    
Moisture  
Dew Point 75 °F    
Average Humidity 72    
Maximum Humidity 85    
Minimum Humidity 59    
Precipitation  
Precipitation 0.09 in 0.15 in 5.15 in (1959)
Month to date precipitation 4.27 3.48  
Year to date precipitation 52.26 52.55  
Snow  
Snow 0.00 in - - ()
Month to date snowfall 0.0  
Since 1 July snowfall 0.0  
Since 1 September snowfall 0.0  
Snow Depth 0.00 in    
Sea Level Pressure  
Sea Level Pressure 29.93 in    
Wind  
Wind Speed 8 mph (SW)    
Max Wind Speed 25 mph    
Max Gust Speed 33 mph    
Visibility 10 miles    
Events Rain , Thunderstorm    
T = Trace of Precipitation, MM = Missing Value Source: NWS Daily Summary

Daily Weather History Graph

Daily Weather History Graph

Search for Another Location

Airport or City:

Astronomy

Oct. 20, 2019 Rise Set
Actual Time 7:22 AM EDT 6:47 PM EDT
Civil Twilight 6:58 AM EDT 7:11 PM EDT
Nautical Twilight 6:31 AM EDT 7:38 PM EDT
Astronomical Twilight 6:04 AM EDT 8:05 PM EDT
Moon No Moon Rise 1:27 PM EDT (10/20)
Length of Visible Light 12h 12m
Length of Day
11h 25m
Waning Gibbous, 59% of the Moon is Illuminated
Oct 20
Waning Gibbous
Oct 21
Last Quarter
Oct 27
New
Nov 4
First Quarter
Nov 12
Full

Hourly Weather History & Observations

Time (EDT) Temp. Heat Index Dew Point Humidity Pressure Visibility Wind Dir Wind Speed Gust Speed Precip Events Conditions
12:53 AM 82.0 °F 88.6 °F 75.0 °F 79% 29.88 in 10.0 mi South 11.5 mph - N/A   Mostly Cloudy
1:53 AM 82.0 °F 89.4 °F 75.9 °F 82% 29.88 in 10.0 mi South 9.2 mph - N/A   Scattered Clouds
2:53 AM 82.0 °F 89.4 °F 75.9 °F 82% 29.87 in 10.0 mi South 10.4 mph - N/A   Mostly Cloudy
3:53 AM 81.0 °F 86.7 °F 75.0 °F 82% 29.87 in 10.0 mi South 8.1 mph - N/A   Scattered Clouds
4:53 AM 81.0 °F 86.7 °F 75.0 °F 82% 29.88 in 10.0 mi South 9.2 mph - N/A   Partly Cloudy
5:53 AM 81.0 °F 87.3 °F 75.9 °F 85% 29.89 in 10.0 mi South 10.4 mph - N/A   Scattered Clouds
6:53 AM 81.0 °F 87.3 °F 75.9 °F 85% 29.91 in 10.0 mi SSW 8.1 mph - N/A   Scattered Clouds
7:53 AM 80.1 °F 85.8 °F 77.0 °F 90% 29.92 in 7.0 mi SW 6.9 mph - 0.03 in Rain Light Rain
8:53 AM 82.0 °F 90.2 °F 77.0 °F 85% 29.94 in 10.0 mi SW 11.5 mph - 0.00 in   Scattered Clouds
9:39 AM 84.0 °F 93.7 °F 77.0 °F 79% 29.96 in 10.0 mi SW 15.0 mph - N/A   Mostly Cloudy
9:53 AM 84.0 °F 93.7 °F 77.0 °F 79% 29.96 in 10.0 mi SSW 12.7 mph - N/A   Mostly Cloudy
10:53 AM 86.0 °F 96.9 °F 77.0 °F 74% 29.96 in 10.0 mi WSW 12.7 mph - N/A   Mostly Cloudy
11:53 AM 80.1 °F 84.5 °F 73.9 °F 81% 29.98 in 10.0 mi West 10.4 mph - 0.03 in Rain Light Rain
12:15 PM 82.0 °F 90.2 °F 77.0 °F 85% 29.97 in 10.0 mi West 9.2 mph - 0.02 in   Mostly Cloudy
12:53 PM 84.9 °F 95.3 °F 77.0 °F 77% 29.96 in 10.0 mi West 9.2 mph - 0.02 in   Mostly Cloudy
1:53 PM 86.0 °F 96.0 °F 75.9 °F 72% 29.94 in 10.0 mi West 11.5 mph - N/A   Mostly Cloudy
2:53 PM 89.1 °F 98.0 °F 73.9 °F 61% 29.92 in 10.0 mi SW 11.5 mph - N/A   Mostly Cloudy
3:53 PM 82.9 °F 90.2 °F 75.0 °F 77% 29.93 in 10.0 mi WNW 12.7 mph - N/A   Mostly Cloudy
4:13 PM 84.9 °F 93.3 °F 75.0 °F 72% 29.92 in 10.0 mi WNW 8.1 mph - N/A Thunderstorm Thunderstorm
4:43 PM 84.9 °F 93.3 °F 75.0 °F 72% 29.92 in 10.0 mi West 9.2 mph - N/A   Mostly Cloudy
4:53 PM 84.9 °F 91.4 °F 73.0 °F 67% 29.92 in 10.0 mi West 11.5 mph - N/A   Mostly Cloudy
5:21 PM 86.0 °F 93.8 °F 73.9 °F 67% 29.92 in 10.0 mi WSW 10.4 mph - N/A Thunderstorm Thunderstorm
5:53 PM 86.0 °F 93.8 °F 73.9 °F 67% 29.92 in 10.0 mi WSW 5.8 mph - N/A Thunderstorm Thunderstorm
6:23 PM 84.9 °F 91.4 °F 73.0 °F 67% 29.93 in 10.0 mi West 9.2 mph - N/A   Mostly Cloudy
6:53 PM 84.0 °F 90.2 °F 73.0 °F 69% 29.94 in 10.0 mi WSW 4.6 mph - N/A   Mostly Cloudy
7:53 PM 82.9 °F 88.8 °F 73.0 °F 72% 29.95 in 10.0 mi West 3.5 mph - N/A   Mostly Cloudy
8:53 PM 82.9 °F 88.8 °F 73.0 °F 72% 29.97 in 10.0 mi Calm Calm - N/A   Mostly Cloudy
9:53 PM 82.9 °F 88.8 °F 73.0 °F 72% 29.97 in 10.0 mi Calm Calm - N/A   Mostly Cloudy
10:53 PM 82.9 °F 88.8 °F 73.0 °F 72% 29.99 in 10.0 mi Calm Calm - N/A   Scattered Clouds
11:53 PM 82.0 °F 87.9 °F 73.9 °F 76% 29.99 in 10.0 mi Calm Calm - 0.01 in Rain Light Rain